SCP
0 0 0 0 0 0 0 0 0 0 0 0 0 0 0 0 0 0 0 0 0 0
0 0 0 0 0 0 0 0 0 0 0 0 0 0 0 0 0 0 0 0 0 0
0 0 0 -0 0 0 0 0 0 0 0 0 0 0 0 0 0 0 0 0 0 0
0 0 0 0 0 0 0 0 0 0 0 0 0 0 0 0 0 0 0 0 0 0
0 0 0 0 0 0 0 0 0 0 0 0 0 0 0 0 0 0 0 0 0 0
0 0 0 0 0 0 -0 -0 0 0 0 0 0 0 0 0 0 0 0 0 0 0
-0 -0 0 0 0 0 0 0 -0 -0 0 0 0 0 0 0 0 0 0 0 0 0
-0 0 -0 -0 0 0 0 0 0 -0 -0 0 0 0 0 0 0 0 0 0 0 0
-0 -0 -0 -0 0 0 0 0 0 0 -0 -0 0 0 0 0 0 0 0 0 0 0
-0 0 -0 0 -0 -0 -0 0 0 0 0 0 0 -0 0 0 0 0 0 0 0 0
-0 -0 0 0 0 -0 -0 -0 0 0 0 0 0 -0 -0 -0 0 0 0 0 0 0
-0 -0 -0 -0 0 0 -0 0 0 0 0 0 0 0 0 -0 0 0 0 0 0 0
0 0 0 0 0 0 -0 0 -0 0 0 0 0 0 0 0 0 0 0 0 0 0
0 0 0 0 0 0 0 0 0 0 0 0 0 0 0 0 0 0 0 0 0 0
Wind_Speed_500mb
32 27 28 33 39 43 49 53 57 64 93 110 111 110 107 103 103 103 99 96 92 86
42 33 35 35 37 40 41 46 51 58 63 87 109 110 111 110 106 103 100 101 100 94
54 50 40 37 37 39 37 40 47 53 62 67 85 105 110 113 109 107 107 107 106 102
54 56 51 48 42 42 46 43 43 47 55 65 75 86 105 114 115 112 112 113 113 109
51 51 54 55 53 50 40 48 54 51 56 60 70 77 91 107 121 120 114 116 115 115
50 51 49 53 54 54 57 53 46 50 57 60 68 77 85 89 114 125 118 116 117 119
59 59 56 53 53 55 56 57 59 57 50 56 61 71 81 90 99 110 119 123 120 120
63 63 65 63 62 60 57 60 58 61 64 60 64 71 76 84 97 104 108 118 123 125
75 80 72 72 73 74 72 69 69 65 61 64 62 75 74 73 80 95 106 116 122 126
74 81 87 87 84 83 83 81 78 76 72 71 69 62 69 71 71 76 95 108 118 123
74 79 86 92 94 96 97 97 94 90 83 78 80 72 59 65 73 77 85 101 114 121
88 88 88 92 98 104 109 109 106 105 99 90 87 82 72 58 68 81 90 96 108 118
104 107 108 108 108 109 109 117 121 117 112 102 97 85 84 65 65 78 94 94 105 112
120 123 129 130 127 123 121 119 121 129 125 117 103 93 85 80 68 81 88 94 102 108
Wind_Direction_500mb
347 329 312 307 301 291 286 284 273 264 248 242 241 240 239 237 233 229 227 228 230 230
3 345 330 315 302 293 289 284 279 273 264 251 245 243 242 239 236 234 232 230 230 230
9 7 351 332 317 302 294 287 281 275 271 262 252 246 243 242 238 235 234 233 232 230
359 359 359 2 343 319 307 299 284 274 271 270 264 252 244 243 241 237 235 234 233 232
350 350 352 354 350 349 328 307 299 284 269 263 264 262 253 246 244 239 235 236 236 234
347 345 346 343 344 345 339 336 321 296 285 274 264 259 258 256 250 245 241 238 238 237
342 342 340 337 334 333 335 331 328 326 306 284 277 265 259 256 253 251 247 243 240 238
337 333 332 333 331 327 324 324 323 321 320 312 287 274 265 259 258 255 252 249 244 241
327 327 328 327 327 325 323 323 320 315 311 307 307 286 275 267 262 261 255 251 247 243
315 315 316 319 320 320 320 320 318 316 310 302 299 298 282 271 263 262 261 256 252 248
302 303 307 310 311 313 313 312 311 310 309 303 295 295 293 272 266 256 256 259 255 252
301 299 298 298 301 303 304 304 304 302 302 303 297 294 287 272 261 260 252 256 257 253
300 298 296 294 292 292 292 294 296 296 295 295 295 292 287 277 261 258 257 254 254 252
298 297 296 295 292 290 288 286 285 288 289 288 287 289 287 281 266 258 251 246 247 249
Wind_Speed_850mb
32 27 28 33 39 43 49 53 57 64 93 110 111 110 107 103 103 103 99 96 92 86
42 33 35 35 37 40 41 46 51 58 63 87 109 110 111 110 106 103 100 101 100 94
54 50 40 37 37 39 37 40 47 53 62 67 85 105 110 113 109 107 107 107 106 102
54 56 51 48 42 42 46 43 43 47 55 65 75 86 105 114 115 112 112 113 113 109
51 51 54 55 53 50 40 48 54 51 56 60 70 77 91 107 121 120 114 116 115 115
50 51 49 53 54 54 57 53 46 50 57 60 68 77 85 89 114 125 118 116 117 119
59 59 56 53 53 55 56 57 59 57 50 56 61 71 81 90 99 110 119 123 120 120
63 63 65 63 62 60 57 60 58 61 64 60 64 71 76 84 97 104 108 118 123 125
75 80 72 72 73 74 72 69 69 65 61 64 62 75 74 73 80 95 106 116 122 126
74 81 87 87 84 83 83 81 78 76 72 71 69 62 69 71 71 76 95 108 118 123
74 79 86 92 94 96 97 97 94 90 83 78 80 72 59 65 73 77 85 101 114 121
88 88 88 92 98 104 109 109 106 105 99 90 87 82 72 58 68 81 90 96 108 118
104 107 108 108 108 109 109 117 121 117 112 102 97 85 84 65 65 78 94 94 105 112
120 123 129 130 127 123 121 119 121 129 125 117 103 93 85 80 68 81 88 94 102 108
Wind_Direction_850mb
347 329 312 307 301 291 286 284 273 264 248 242 241 240 239 237 233 229 227 228 230 230
3 345 330 315 302 293 289 284 279 273 264 251 245 243 242 239 236 234 232 230 230 230
9 7 351 332 317 302 294 287 281 275 271 262 252 246 243 242 238 235 234 233 232 230
359 359 359 2 343 319 307 299 284 274 271 270 264 252 244 243 241 237 235 234 233 232
350 350 352 354 350 349 328 307 299 284 269 263 264 262 253 246 244 239 235 236 236 234
347 345 346 343 344 345 339 336 321 296 285 274 264 259 258 256 250 245 241 238 238 237
342 342 340 337 334 333 335 331 328 326 306 284 277 265 259 256 253 251 247 243 240 238
337 333 332 333 331 327 324 324 323 321 320 312 287 274 265 259 258 255 252 249 244 241
327 327 328 327 327 325 323 323 320 315 311 307 307 286 275 267 262 261 255 251 247 243
315 315 316 319 320 320 320 320 318 316 310 302 299 298 282 271 263 262 261 256 252 248
302 303 307 310 311 313 313 312 311 310 309 303 295 295 293 272 266 256 256 259 255 252
301 299 298 298 301 303 304 304 304 302 302 303 297 294 287 272 261 260 252 256 257 253
300 298 296 294 292 292 292 294 296 296 295 295 295 292 287 277 261 258 257 254 254 252
298 297 296 295 292 290 288 286 285 288 289 288 287 289 287 281 266 258 251 246 247 249